EDT,Max TemperatureF,Mean TemperatureF,Min TemperatureF,Max Dew PointF,MeanDew PointF,Min DewpointF,Max Humidity, Mean Humidity, Min Humidity, Max Sea Level PressureIn, Mean Sea Level PressureIn, Min Sea Level PressureIn, Max VisibilityMiles, Mean VisibilityMiles, Min VisibilityMiles, Max Wind SpeedMPH, Mean Wind SpeedMPH, Max Gust SpeedMPH,PrecipitationIn, CloudCover, Events, WindDirDegrees
2012-9-1,75,62,48,54,47,43,87,67,41,30.24,30.19,30.14,10,10,10,12,3,17,0.00,0,,24
2012-9-2,77,60,43,55,47,39,88,71,38,30.14,30.08,29.98,10,10,10,14,3,21,0.00,0,,164
2012-9-3,78,68,57,66,60,54,94,85,57,29.98,29.94,29.87,10,9,0,9,6,,0.00,3,Thunderstorm,193
2012-9-4,82,71,60,66,62,56,94,84,48,29.93,29.89,29.82,10,4,0,16,4,37,0.00,6,Fog-Rain-Thunderstorm,206
2012-9-5,66,62,58,61,56,54,91,83,64,29.86,29.81,29.77,10,10,7,15,6,30,0.00,3,Rain-Thunderstorm,245
2012-9-6,80,65,50,59,51,45,94,74,36,29.91,29.87,29.82,10,10,10,14,3,20,0.00,2,Rain,272
2012-9-7,60,55,49,54,52,47,94,86,63,29.91,29.87,29.83,10,10,1,14,4,17,0.00,7,Rain,274
2012-9-8,60,54,49,50,47,39,94,80,48,29.87,29.81,29.75,10,10,7,16,5,21,0.00,6,Rain,321
2012-9-9,62,53,44,50,45,42,93,81,55,30.13,30.00,29.88,10,10,10,14,3,18,0.00,3,,340
2012-9-10,73,54,36,50,42,33,91,72,36,30.15,30.08,29.96,10,10,10,20,5,24,0.00,0,,202
2012-9-11,78,66,53,58,52,48,82,67,39,29.98,29.92,29.85,10,10,10,23,13,32,0.00,0,,198
2012-9-12,71,60,50,57,49,32,85,64,26,30.18,30.00,29.89,10,10,10,16,12,21,0.00,3,Rain,223
2012-9-13,62,54,47,46,44,39,85,72,42,30.27,30.21,30.17,10,10,10,14,5,18,0.00,6,Rain,256
2012-9-14,62,52,41,46,40,36,87,75,42,30.33,30.27,30.25,10,10,10,16,2,18,0.00,3,,333
2012-9-15,68,54,39,50,42,36,93,77,33,30.33,30.23,30.05,10,10,10,16,3,16,0.00,1,,187
2012-9-16,80,64,47,52,48,43,93,74,26,30.04,29.93,29.83,10,9,1,20,7,25,0.00,2,,207
2012-9-17,59,52,45,54,49,41,94,85,74,29.85,29.83,29.81,10,9,3,14,5,23,0.00,6,Rain,347
2012-9-18,48,42,36,42,38,33,91,84,66,29.93,29.86,29.82,10,9,2,16,9,24,0.02,6,Rain,322
2012-9-19,51,42,32,46,36,30,93,85,58,29.94,29.81,29.58,10,10,10,28,7,34,0.00,4,Rain,226
2012-9-20,53,48,44,45,42,39,93,82,58,29.81,29.69,29.62,10,10,7,16,9,24,0.00,5,Rain,248
2012-9-21,51,44,37,45,39,34,93,84,50,29.79,29.76,29.72,10,10,4,14,4,17,0.00,4,Rain-Thunderstorm,254
2012-9-22,50,41,32,41,35,30,93,86,58,30.04,29.86,29.74,10,10,2,21,5,29,0.00,4,Rain,315
2012-9-23,48,40,33,37,33,31,94,82,58,30.13,30.08,30.03,10,10,10,15,7,23,0.00,2,,284
2012-9-24,66,50,33,41,33,28,90,69,28,30.08,29.87,29.58,10,10,10,25,10,33,0.00,1,,240
2012-9-25,55,44,32,41,37,30,93,79,51,29.94,29.87,29.81,10,10,10,14,4,,0.00,3,,357
2012-9-26,51,42,32,40,35,30,93,82,54,30.23,30.05,29.94,10,10,10,14,4,18,0.00,2,,333
2012-9-27,60,45,30,41,33,27,94,76,31,30.30,30.23,30.18,10,10,2,7,1,,0.00,0,,208
2012-9-28,68,50,32,40,36,30,93,73,28,30.19,30.14,30.09,10,10,7,9,1,,0.00,0,,321
2012-9-29,57,47,37,48,40,34,93,80,55,30.11,30.08,30.07,10,10,10,15,3,21,0.00,1,,7
2012-9-30,62,47,32,45,38,30,93,82,42,30.08,30.03,29.79,10,9,1,6,3,,0.00,0,,339